Location: Dodge City Co - Operative Exchange Grain Elevator Number 8
(38.1218°N, 99.7124°W)
Time: 01:32:56
(UTC+00:00)

Cosmos 1470 Rocket - Pass Details

Date: 03 March 2021
Orbit: 603 x 634 km, 82.5° (Epoch: 14 April)

Event Time Altitude Azimuth Distance (km) Brightness Sun altitude
Rises 12:31:56 0° 355° (N) 2,888 6.9 -7.8°
Reaches altitude 10° 12:34:11 10° 358° (N) 1,974 6.1 -7.3°
Maximum altitude 12:38:32 67° 82° (E) 660 4.0 -6.5°
Drops below altitude 10° 12:42:49 10° 165° (SSE) 1,945 6.4 -5.6°
Sets 12:45:01 0° 168° (SSE) 2,841 7.2 -5.2°
